Seattle Boeing, WA
on Tuesday, February 12, 2013

Tuesday
Previous Day Next Day
Daily Summary
 ActualAverage (KSEA)Record (KSEA)
Temperature
Mean Temperature °F 43°F  
Max Temperature 52°F 50°F 66°F (1963)
Min Temperature 46°F 37°F 21°F (1949)
Degree Days
Heating Degree Days 16 22  
Month to date heating degree days 264  
Since 1 July heating degree days 2913  
Cooling Degree Days 0 0  
Month to date cooling degree days 0  
Year to date cooling degree days 0  
Moisture
Dew Point 43°F   
Average Humidity 82    
Maximum Humidity 93    
Minimum Humidity 71    
Precipitation
Precipitation 0.00 in 0.12 in 1.23 in (1954)
Month to date precipitation 1.58  
Year to date precipitation 7.15  
Snow
Snow 0.00 in in 0.20 in (1995)
Month to date snowfall  
Since 1 July snowfall  
Snow Depth in   
Wind
Wind Speed 8 mph   
Max Wind Speed 17 mph   
Max Gust Speed 26 mph   
Visibility 8 miles   
Events     

Key: T is trace of precipitation, MM is missing value
Source: NWS Daily Summary
Time(PST)TemperatureDew PointHumidity Pressure Visibility Wind DirectionWind SpeedGust SpeedPrecipitationEvents Conditions
12:53 AM 46.0°F 42.1°F 86% 30.35 in 9.0 miles SE 6.9 mph - N/A   Overcast
1:53 AM 46.0°F 43.0°F 89% 30.35 in 3.0 miles SSE 4.6 mph - N/A   Overcast
2:01 AM 46.4°F 42.8°F 87% 30.35 in 4.0 miles SSE 6.9 mph - N/A   Overcast
2:53 AM 46.9°F 42.1°F 83% 30.36 in 10.0 miles South 4.6 mph - N/A   Overcast
3:48 AM 46.4°F 42.8°F 87% 30.36 in 7.0 miles South 3.5 mph - N/A   Overcast
3:53 AM 46.9°F 43.0°F 86% 30.36 in 10.0 miles SSE 4.6 mph - N/A   Overcast
4:53 AM 46.0°F 43.0°F 89% 30.36 in 7.0 miles SSE 6.9 mph - N/A   Overcast
5:53 AM 46.9°F 43.0°F 86% 30.36 in 7.0 miles SE 8.1 mph - N/A   Overcast
6:28 AM 46.4°F 42.8°F 87% 30.37 in 3.0 miles SE 8.1 mph - N/A   Overcast
6:53 AM 46.0°F 43.0°F 89% 30.37 in 3.0 miles SE 8.1 mph - N/A   Overcast
7:53 AM 46.9°F 44.1°F 90% 30.38 in 5.0 miles SSE 6.9 mph - N/A   Overcast
8:53 AM 48.0°F 44.1°F 86% 30.38 in 10.0 miles SSE 8.1 mph - N/A   Overcast
9:02 AM 48.2°F 44.6°F 87% 30.39 in 10.0 miles SSE 9.2 mph - N/A   Overcast
9:04 AM 48.2°F 42.8°F 82% 30.39 in 10.0 miles SSE 8.1 mph - N/A   Overcast
9:35 AM 46.4°F 44.6°F 93% 30.39 in 2.0 miles SSE 6.9 mph - N/A   Overcast
9:53 AM 46.9°F 44.1°F 90% 30.39 in 4.0 miles SSE 5.8 mph - N/A   Overcast
10:49 AM 48.2°F 42.8°F 82% 30.40 in 10.0 miles SSE 6.9 mph - N/A   Overcast
10:53 AM 48.0°F 43.0°F 83% 30.40 in 10.0 miles SSE 4.6 mph - N/A   Overcast
11:53 AM 48.9°F 44.1°F 83% 30.39 in 10.0 miles South 4.6 mph - N/A   Overcast
12:53 PM 50.0°F 44.1°F 80% 30.37 in 10.0 miles South 6.9 mph - N/A   Overcast
1:53 PM 50.0°F 44.1°F 80% 30.36 in 10.0 miles Variable 5.8 mph - N/A   Overcast
2:53 PM 51.1°F 44.1°F 77% 30.33 in 10.0 miles SSE 11.5 mph - N/A   Overcast
3:53 PM 52.0°F 43.0°F 71% 30.34 in 10.0 miles South 13.8 mph 21.9 mph N/A   Overcast
4:53 PM 52.0°F 43.0°F 71% 30.33 in 10.0 miles SSW 15.0 mph 23.0 mph N/A   Mostly Cloudy
5:53 PM 51.1°F 43.0°F 74% 30.33 in 10.0 miles South 11.5 mph 24.2 mph N/A   Overcast
6:53 PM 51.1°F 44.1°F 77% 30.32 in 10.0 miles South 11.5 mph 23.0 mph N/A   Overcast
7:02 PM 51.8°F 42.8°F 71% 30.32 in 10.0 miles South 10.4 mph 25.3 mph N/A   Overcast
7:53 PM 51.1°F 43.0°F 74% 30.32 in 10.0 miles South 11.5 mph 19.6 mph N/A   Mostly Cloudy
8:53 PM 51.1°F 43.0°F 74% 30.31 in 10.0 miles SSW 13.8 mph 21.9 mph N/A   Mostly Cloudy
9:53 PM 50.0°F 43.0°F 77% 30.30 in 10.0 miles South 11.5 mph 20.7 mph N/A   Mostly Cloudy
10:31 PM 50.0°F 42.8°F 76% 30.30 in 10.0 miles South 17.3 mph 26.5 mph N/A   Scattered Clouds
10:53 PM 50.0°F 43.0°F 77% 30.30 in 10.0 miles South 15.0 mph 23.0 mph N/A   Scattered Clouds
11:28 PM 50.0°F 42.8°F 76% 30.30 in 10.0 miles South 10.4 mph 19.6 mph N/A   Mostly Cloudy
11:53 PM 50.0°F 43.0°F 77% 30.29 in 10.0 miles South 12.7 mph 21.9 mph N/A   Overcast
Moon Phase
Feb. 12 Feb. 17 Feb. 25 Mar. 04 Mar. 11
Sunrise:07:18 AM (PST) Moon Rise:08:03 AM (PST)2/12
Sunset:05:28 PM (PST) Moon Set:08:52 PM (PST)2/12

Copyright © 2014 The Weather Underground, Inc.